Location: Pinhead Observatory
(34.4473°N, 118.1985°W)
Time: 07:15:57
(UTC-08:00)

Daily predictions for brighter satellites

Satellite Brightness Start Highest point End
(mag) Time Altitude Azimuth Time Altitude Azimuth Time Altitude Azimuth
Meteor 1-27 4.3 17:34:42 10° N 17:40:32 69° E 17:46:20 10° SSE
BREEZE-M DEB (TANK) 3.2 17:39:17 10° WSW 17:41:52 33° NW 17:44:05 10° NNE
Meteor 1-28 Rocket 3.9 17:39:09 10° NNE 17:42:32 33° E 17:45:55 10° SSE
Cosmos 1340 Rocket 2.8 17:39:26 10° S 17:43:22 87° WNW 17:47:18 10° N
IDEFIX/ARIANE 42P 3.3 17:38:16 10° S 17:43:24 59° W 17:48:34 10° NNW
OTV 4 3.5 17:45:17 10° WSW 17:47:01 14° SSW 17:48:45 10° S
YAOGAN 1 3.0 17:43:16 10° S 17:47:33 68° WSW 17:51:52 10° NNW
Cosmos 2297 3.8 17:42:31 10° NNW 17:48:09 58° ENE 17:53:47 10° SE
CZ-2C R/B 3.5 17:43:51 10° S 17:48:39 50° W 17:53:20 10° NNW
Cosmos 1707 Rocket 4.0 17:45:49 10° N 17:49:53 39° E 17:53:58 10° SSE
CZ-3A R/B 3.8 17:48:32 10° NNW 17:52:36 26° NE 17:57:33 10° E
COSMO-SKYMED 1 2.5 17:49:05 10° NNE 17:53:26 75° ESE 17:57:45 10° S
SMAP 4.2 17:49:51 10° S 17:54:21 49° W 17:58:53 10° NNW
Cosmos 1666 Rocket 3.6 17:52:32 10° S 17:56:46 56° E 18:01:03 10° NNE
Cosmos 1869 4.4 17:57:58 10° NNE 18:01:14 23° ENE 18:04:29 10° SE
Cosmos 1626 2.0 17:58:09 10° S 18:01:53 78° E 18:05:37 10° N
Lacrosse 4 Rocket 2.3 18:02:28 10° N 18:05:51 25° ENE 18:09:13 10° ESE
Cosmos 1943 4.4 18:03:46 10° SSE 18:07:50 21° E 18:10:29 15° ENE
Milstar 3 4.2 18:03:22 10° W 18:09:31 33° SSW 18:15:37 10° SE
Cosmos 1184 Rocket 2.7 18:07:46 10° S 18:11:06 79° E 18:14:26 10° N
Resurs 01 Rocket 3.0 18:12:21 15° E 18:14:12 19° ENE 18:17:16 10° NNE
FREGAT/IRIS 3.3 18:16:32 10° SE 18:19:16 31° ENE 18:22:02 10° N
Tiangong 1 1.0 18:21:48 10° WSW 18:24:46 68° NNW 18:25:53 33° NE
Iridium 4 Rocket 3.1 18:23:43 10° SSE 18:28:06 54° E 18:32:14 10° NNE
Cosmos 1242 Rocket 2.9 18:26:40 10° N 18:29:56 36° E 18:33:10 10° SSE
Cosmos 1470 Rocket 3.6 18:25:44 10° SSE 18:29:56 51° E 18:34:09 10° NNE
Lacrosse 5 rocket 3.9 18:26:56 10° WNW 18:30:00 22° WSW 18:33:10 10° S
Spot 2 Rocket 4.2 18:26:38 10° SE 18:30:58 30° ENE 18:35:20 10° N
USA 229 DEB 3.9 18:25:12 10° SW 18:32:01 70° WNW 18:38:57 10° NNE
USA 229 3.9 18:25:18 10° SW 18:32:07 71° WNW 18:39:03 10° NNE
Cosmos 1455 2.3 18:29:19 10° N 18:33:07 76° W 18:36:56 10° S
ERBS 4.5 18:31:22 10° SSE 18:32:33 14° SE 18:32:33 14° SE
Cosmos 1603 3.6 18:29:58 10° SSW 18:35:34 88° ESE 18:41:12 10° NNE
Coronas F rocket 2.6 18:34:19 10° SSW 18:36:32 34° W 18:38:26 13° NNW
Centaur AC-119 3.6 18:37:59 10° SW 18:40:05 24° SSE 18:41:17 20° SE
Aureole 1 Rocket 4.3 18:35:03 10° SSW 18:40:16 63° WNW 18:47:15 10° NNE
FengYun 1-2 T 4.3 18:39:18 10° SE 18:44:38 49° ENE 18:49:56 10° N
Sich 1 4.5 18:41:09 10° SSW 18:45:18 39° W 18:49:28 10° N
NOSS 3-1 (A) 3.7 18:40:45 10° S 18:45:59 40° ESE 18:47:36 33° ENE
Cosmos 2242 Rocket 3.5 18:42:34 10° N 18:47:01 87° W 18:51:29 10° S
SJ-6B 3.0 18:49:13 10° S 18:53:16 74° WSW 18:57:25 10° NNW
Intelsat 5-1 Rocket 4.3 18:54:54 10° SSW 18:56:13 12° S 18:57:36 10° SSE
Cosmos 2026 Rocket 3.8 18:52:00 10° S 18:58:09 68° E 19:04:14 10° NNE
Delta 2 Rocket 3.5 19:00:18 10° WSW 19:02:56 48° SW 19:02:56 48° SW
Cosmos 1680 Rocket 3.9 18:59:04 10° SSW 19:04:13 63° WNW 19:08:36 15° N
Meteor 2-20 4.3 19:00:55 10° S 19:06:59 74° E 19:13:07 10° N
OAO 1 4.3 19:06:54 10° WSW 19:12:22 85° S 19:13:06 68° E
Cosmos 2369 Rocket 3.1 19:07:26 10° N 19:10:49 31° NNE 19:10:49 31° NNE
Cosmos 972 Rocket 4.2 19:10:15 10° N 19:15:21 60° ENE 19:15:21 60° ENE
ALOS 2.3 19:11:59 10° S 19:16:39 78° W 19:21:20 10° NNW
NOSS 3-1 (C) 3.4 19:17:19 10° SW 19:22:59 74° WNW 19:24:57 44° NNE
Genesis I 4.2 19:19:24 10° SW 19:22:49 46° WNW 19:22:49 46° WNW
Cosmos 1862 Rocket 4.1 19:20:59 10° NNW 19:25:16 56° W 19:29:29 10° S
Cosmos 1428 Rocket 4.2 19:23:04 10° S 19:29:09 81° E 19:30:06 65° NNE
USA 215 3.1 19:31:27 66° ENE 19:31:49 67° NE 19:38:19 10° NW
FENGYUN 3A 4.1 19:26:53 10° S 19:32:10 61° W 19:37:29 10° NNW
In-Cosmos 22 Rocket 4.4 19:37:23 10° SSW 19:42:07 62° WSW 19:42:07 62° WSW
Lacrosse 4 Rocket 3.8 19:41:19 10° WNW 19:44:23 21° WSW 19:46:12 16° SW
Resurs 01 Rocket 3.2 19:46:23 10° SSW 19:50:23 33° W 19:54:25 10° NNW
Cosmos 1943 4.1 19:46:03 10° SW 19:51:28 45° WNW 19:52:24 41° NW
ATLAS 5 CENTAUR R/B 4.4 19:51:37 10° NNW 19:52:40 15° N 19:52:40 15° N
